CFG4AE LGKR-EDDM

Flight info

Callsign CFG4AE
Flight time 1h 45m
Altitude 34000
Route OLGAT DCT ABADI DCT CRAYE DCT GISAM DCT ORAKA DCT SPL DCT ALIVO DCT PENEP DCT RASTA DCT REDBU Q112 NAPSA NAPSA1B
Aircraft A21N/M-SBDE3FGHIJ1J4J7LORVWXYZ/SB2D1G1

Departure

Time 2026-05-07 18:16
Airport Corfu Ioannis Kapodistrias International Airport (LGKR)

Arrival

Time 2026-05-07 20:01
Airport Munich Airport (EDDM)
Time Latitude Longitude Altitude Speed Heading
2026-05-07 17:46 39.60707 19.91360 24 ft 0 kts 79°
2026-05-07 18:06 39.60705 19.91344 51 ft 3 kts 79°
2026-05-07 18:07 39.60701 19.91318 10 ft 3 kts 79°
2026-05-07 18:07 39.60697 19.91292 26 ft 3 kts 78°
2026-05-07 18:07 39.60693 19.91266 27 ft 3 kts 73°
2026-05-07 18:07 39.60686 19.91242 26 ft 3 kts 59°
2026-05-07 18:08 39.60675 19.91226 26 ft 3 kts 17°
2026-05-07 18:08 39.60672 19.91223 26 ft 3 kts 349°
2026-05-07 18:08 39.60691 19.91218 25 ft 2 kts 349°
2026-05-07 18:08 39.60692 19.91217 25 ft 0 kts 349°
2026-05-07 18:10 39.60693 19.91217 25 ft 0 kts 349°
2026-05-07 18:10 39.60710 19.91213 25 ft 4 kts 349°
2026-05-07 18:11 39.60742 19.91205 26 ft 5 kts 349°
2026-05-07 18:11 39.60769 19.91198 23 ft 7 kts 349°
2026-05-07 18:11 39.60839 19.91181 24 ft 9 kts 349°
2026-05-07 18:11 39.60910 19.91162 24 ft 12 kts 348°
2026-05-07 18:12 39.60995 19.91139 24 ft 13 kts 348°
2026-05-07 18:12 39.61091 19.91113 24 ft 15 kts 348°
2026-05-07 18:12 39.61190 19.91084 26 ft 10 kts 332°
2026-05-07 18:12 39.61224 19.91012 27 ft 10 kts 295°
2026-05-07 18:13 39.61181 19.90959 26 ft 10 kts 172°
2026-05-07 18:13 39.61167 19.90963 26 ft 0 kts 166°
2026-05-07 18:15 39.61108 19.90979 29 ft 37 kts 168°
2026-05-07 18:16 39.60590 19.91112 23 ft 113 kts 168°
2026-05-07 18:16 39.59611 19.91355 144 ft 159 kts 168°
2026-05-07 18:16 39.58578 19.91706 875 ft 151 kts 148°
2026-05-07 18:16 39.57981 19.92768 1613 ft 149 kts 106°
2026-05-07 18:17 39.58153 19.94065 2306 ft 152 kts 61°
2026-05-07 18:17 39.59048 19.94933 2958 ft 177 kts 21°
2026-05-07 18:17 39.60377 19.94936 3493 ft 211 kts 345°
2026-05-07 18:17 39.61718 19.93872 4017 ft 246 kts 315°
2026-05-07 18:18 39.62960 19.92104 4577 ft 278 kts 305°
2026-05-07 18:18 39.64137 19.90077 5320 ft 285 kts 303°
2026-05-07 18:18 39.65322 19.87987 6133 ft 289 kts 303°
2026-05-07 18:18 39.66506 19.85902 6951 ft 291 kts 303°
2026-05-07 18:19 39.67716 19.83779 7784 ft 293 kts 303°
2026-05-07 18:19 39.68931 19.81650 8629 ft 294 kts 302°
2026-05-07 18:19 39.70149 19.79509 9478 ft 295 kts 302°
2026-05-07 18:19 39.71379 19.77352 10244 ft 299 kts 302°
2026-05-07 18:20 39.72650 19.75123 10613 ft 315 kts 302°
2026-05-07 18:20 39.73991 19.72764 10901 ft 333 kts 302°
2026-05-07 18:20 39.75404 19.70273 11173 ft 352 kts 302°
2026-05-07 18:20 39.76893 19.67644 11549 ft 366 kts 302°
2026-05-07 18:21 39.78403 19.65000 12198 ft 370 kts 302°
2026-05-07 18:21 39.79947 19.62299 12960 ft 372 kts 302°
2026-05-07 18:21 39.81488 19.59591 13725 ft 374 kts 302°
2026-05-07 18:21 39.83033 19.56868 14396 ft 376 kts 302°
2026-05-07 18:22 39.84596 19.54122 15052 ft 378 kts 303°
2026-05-07 18:22 39.85725 19.52376 15474 ft 383 kts 308°
2026-05-07 18:22 39.88210 19.49013 16350 ft 386 kts 310°
2026-05-07 18:22 39.90092 19.46499 17015 ft 389 kts 310°
2026-05-07 18:23 39.91985 19.43964 17646 ft 391 kts 310°
2026-05-07 18:23 39.93864 19.41441 18273 ft 394 kts 310°
2026-05-07 18:23 39.95756 19.38898 18820 ft 396 kts 310°
2026-05-07 18:23 39.97679 19.36313 19373 ft 398 kts 310°
2026-05-07 18:24 39.99605 19.33718 19910 ft 399 kts 310°
2026-05-07 18:24 40.01545 19.31103 20445 ft 401 kts 310°
2026-05-07 18:24 40.03484 19.28486 20973 ft 403 kts 310°
2026-05-07 18:24 40.05442 19.25841 21500 ft 405 kts 310°
2026-05-07 18:25 40.07400 19.23191 22008 ft 407 kts 310°
2026-05-07 18:25 40.09368 19.20522 22517 ft 409 kts 310°
2026-05-07 18:25 40.11355 19.17831 23022 ft 411 kts 310°
2026-05-07 18:25 40.13315 19.15174 23515 ft 413 kts 310°
2026-05-07 18:26 40.15307 19.12464 23939 ft 415 kts 310°
2026-05-07 18:26 40.17310 19.09740 24360 ft 417 kts 310°
2026-05-07 18:26 40.19325 19.06999 24744 ft 419 kts 310°
2026-05-07 18:26 40.21352 19.04245 25146 ft 421 kts 310°
2026-05-07 18:27 40.23412 19.01504 25553 ft 424 kts 313°
2026-05-07 18:27 40.25753 18.99116 25935 ft 431 kts 322°
2026-05-07 18:27 40.28390 18.97163 26325 ft 436 kts 327°
2026-05-07 18:27 40.30170 18.95936 26575 ft 438 kts 327°
2026-05-07 18:28 40.33785 18.93452 27072 ft 440 kts 327°
2026-05-07 18:28 40.36498 18.91569 27439 ft 442 kts 326°
2026-05-07 18:28 40.39215 18.89675 27796 ft 443 kts 326°
2026-05-07 18:28 40.41909 18.87792 28204 ft 444 kts 326°
2026-05-07 18:29 40.44636 18.85884 28693 ft 442 kts 326°
2026-05-07 18:29 40.47342 18.83986 29183 ft 439 kts 326°
2026-05-07 18:29 40.50026 18.82099 29662 ft 437 kts 326°
2026-05-07 18:29 40.52704 18.80219 30128 ft 435 kts 325°
2026-05-07 18:30 40.55367 18.78350 30523 ft 432 kts 325°
2026-05-07 18:30 40.57988 18.76508 30894 ft 431 kts 324°
2026-05-07 18:30 40.60633 18.74650 31223 ft 430 kts 324°
2026-05-07 18:30 40.63265 18.72804 31604 ft 427 kts 323°
2026-05-07 18:31 40.65880 18.70960 32020 ft 424 kts 323°
2026-05-07 18:31 40.68475 18.69127 32388 ft 422 kts 322°
2026-05-07 18:31 40.71053 18.67304 32750 ft 419 kts 322°
2026-05-07 18:31 40.73616 18.65494 33100 ft 417 kts 322°
2026-05-07 18:32 40.76173 18.63706 33443 ft 415 kts 322°
2026-05-07 18:32 40.78737 18.61964 33768 ft 413 kts 322°
2026-05-07 18:32 40.81288 18.60236 34032 ft 412 kts 322°
2026-05-07 18:33 40.86341 18.56811 34077 ft 410 kts 322°
2026-05-07 18:33 40.91407 18.53363 34071 ft 409 kts 322°
2026-05-07 18:34 40.96470 18.49917 34053 ft 410 kts 322°
2026-05-07 18:34 41.01538 18.46459 34056 ft 410 kts 322°
2026-05-07 18:35 41.06615 18.42993 34058 ft 410 kts 322°
2026-05-07 18:35 41.11703 18.39522 34052 ft 411 kts 322°
2026-05-07 18:36 41.16753 18.36061 34062 ft 410 kts 322°
2026-05-07 18:36 41.21833 18.32575 34055 ft 410 kts 322°
2026-05-07 18:37 41.26907 18.29084 34053 ft 411 kts 322°
2026-05-07 18:37 41.31130 18.26173 34050 ft 411 kts 322°
2026-05-07 18:38 41.36206 18.22666 34062 ft 411 kts 322°
2026-05-07 18:38 41.41276 18.19157 34055 ft 411 kts 322°
2026-05-07 18:39 41.46348 18.15640 34052 ft 411 kts 322°
2026-05-07 18:39 41.51305 18.12015 34053 ft 404 kts 317°
2026-05-07 18:40 41.55976 18.07889 34055 ft 403 kts 316°
2026-05-07 18:40 41.60646 18.03733 34062 ft 403 kts 316°
2026-05-07 18:41 41.65327 17.99572 34057 ft 404 kts 316°
2026-05-07 18:41 41.70010 17.95405 34053 ft 404 kts 316°
2026-05-07 18:42 41.74690 17.91230 34056 ft 404 kts 316°
2026-05-07 18:42 41.79376 17.87046 34054 ft 404 kts 316°
2026-05-07 18:43 41.84027 17.82885 34070 ft 404 kts 317°
2026-05-07 18:43 41.88703 17.78692 34056 ft 404 kts 317°
2026-05-07 18:44 41.93385 17.74490 34053 ft 404 kts 317°
2026-05-07 18:44 41.98107 17.70272 34057 ft 408 kts 317°
2026-05-07 18:45 42.02807 17.66070 34051 ft 408 kts 317°
2026-05-07 18:45 42.07551 17.61826 34076 ft 409 kts 318°
2026-05-07 18:46 42.12295 17.57557 34049 ft 410 kts 318°
2026-05-07 18:46 42.17046 17.53284 34061 ft 410 kts 318°
2026-05-07 18:47 42.21797 17.49011 34059 ft 410 kts 318°
2026-05-07 18:47 42.26517 17.44750 34056 ft 411 kts 318°
2026-05-07 18:48 42.31272 17.40444 34053 ft 413 kts 319°
2026-05-07 18:48 42.36073 17.36093 34056 ft 417 kts 319°
2026-05-07 18:49 42.40892 17.31720 34050 ft 418 kts 319°
2026-05-07 18:49 42.45716 17.27324 34052 ft 418 kts 319°
2026-05-07 18:50 42.50539 17.22917 34058 ft 418 kts 319°
2026-05-07 18:50 42.55340 17.18546 34061 ft 418 kts 318°
2026-05-07 18:51 42.60162 17.14125 34055 ft 418 kts 318°
2026-05-07 18:51 42.64980 17.09691 34059 ft 418 kts 318°
2026-05-07 18:52 42.69801 17.05257 34058 ft 418 kts 318°
2026-05-07 18:52 42.74636 17.00801 34057 ft 420 kts 318°
2026-05-07 18:53 42.79462 16.96339 34061 ft 420 kts 317°
2026-05-07 18:53 42.84270 16.91880 34062 ft 420 kts 317°
2026-05-07 18:54 42.89106 16.87395 34059 ft 420 kts 317°
2026-05-07 18:54 42.93939 16.82905 34056 ft 420 kts 317°
2026-05-07 18:55 42.98767 16.78393 34076 ft 420 kts 317°
2026-05-07 18:55 43.03558 16.73903 34068 ft 420 kts 317°
2026-05-07 18:56 43.08383 16.69380 34086 ft 420 kts 317°
2026-05-07 18:56 43.13194 16.64871 34073 ft 419 kts 317°
2026-05-07 18:57 43.17994 16.60364 34070 ft 418 kts 317°
2026-05-07 18:57 43.22798 16.55847 34077 ft 418 kts 316°
2026-05-07 18:58 43.27594 16.51321 34069 ft 418 kts 316°
2026-05-07 18:58 43.32365 16.46839 34065 ft 418 kts 316°
2026-05-07 18:59 43.37153 16.42319 34057 ft 417 kts 316°
2026-05-07 18:59 43.41942 16.37784 34055 ft 418 kts 316°
2026-05-07 19:00 43.46728 16.33236 34071 ft 420 kts 316°
2026-05-07 19:00 43.51713 16.28903 34053 ft 428 kts 323°
2026-05-07 19:01 43.56941 16.25044 34061 ft 429 kts 323°
2026-05-07 19:01 43.62192 16.21143 34072 ft 428 kts 323°
2026-05-07 19:02 43.67439 16.17230 34069 ft 428 kts 323°
2026-05-07 19:02 43.72680 16.13312 34064 ft 428 kts 323°
2026-05-07 19:03 43.77919 16.09378 34073 ft 428 kts 323°
2026-05-07 19:03 43.83160 16.05447 34065 ft 428 kts 323°
2026-05-07 19:04 43.88365 16.01531 34078 ft 428 kts 323°
2026-05-07 19:04 43.93595 15.97585 34078 ft 428 kts 323°
2026-05-07 19:05 43.98830 15.93631 34068 ft 428 kts 323°
2026-05-07 19:05 44.04060 15.89677 34073 ft 428 kts 323°
2026-05-07 19:06 44.09292 15.85702 34086 ft 428 kts 323°
2026-05-07 19:06 44.17120 15.79751 34073 ft 427 kts 323°
2026-05-07 19:07 44.22308 15.75784 34090 ft 427 kts 323°
2026-05-07 19:07 44.27520 15.71799 34076 ft 427 kts 323°
2026-05-07 19:08 44.32731 15.67792 34082 ft 428 kts 323°
2026-05-07 19:08 44.37962 15.63789 34075 ft 429 kts 323°
2026-05-07 19:09 44.43156 15.59793 34073 ft 428 kts 323°
2026-05-07 19:09 44.48384 15.55769 34088 ft 429 kts 323°
2026-05-07 19:10 44.53620 15.51735 34076 ft 429 kts 323°
2026-05-07 19:10 44.58852 15.47697 34063 ft 430 kts 323°
2026-05-07 19:11 44.64094 15.43636 34063 ft 430 kts 323°
2026-05-07 19:11 44.69294 15.39593 34055 ft 430 kts 323°
2026-05-07 19:12 44.74517 15.35518 34067 ft 431 kts 323°
2026-05-07 19:12 44.79777 15.31423 34068 ft 429 kts 323°
2026-05-07 19:13 44.85010 15.27323 34055 ft 430 kts 323°
2026-05-07 19:13 44.90206 15.23259 34051 ft 430 kts 323°
2026-05-07 19:14 44.95436 15.19153 34062 ft 430 kts 323°
2026-05-07 19:14 45.00674 15.15031 34045 ft 431 kts 323°
2026-05-07 19:15 45.05914 15.10901 34040 ft 431 kts 323°
2026-05-07 19:15 45.11149 15.06765 34044 ft 431 kts 323°
2026-05-07 19:16 45.16373 15.02630 34042 ft 431 kts 323°
2026-05-07 19:16 45.21614 14.98459 34050 ft 432 kts 323°
2026-05-07 19:17 45.26826 14.94304 34039 ft 432 kts 324°
2026-05-07 19:17 45.32082 14.90131 34047 ft 432 kts 324°
2026-05-07 19:18 45.37330 14.85934 34078 ft 432 kts 323°
2026-05-07 19:18 45.42553 14.81736 34055 ft 431 kts 323°
2026-05-07 19:19 45.47792 14.77527 34052 ft 432 kts 324°
2026-05-07 19:19 45.53053 14.73355 34038 ft 434 kts 326°
2026-05-07 19:20 45.58466 14.69498 34040 ft 435 kts 327°
2026-05-07 19:20 45.63847 14.65672 34057 ft 435 kts 327°
2026-05-07 19:21 45.69263 14.61795 34054 ft 434 kts 326°
2026-05-07 19:21 45.74639 14.57885 34042 ft 433 kts 326°
2026-05-07 19:22 45.80033 14.54007 34031 ft 433 kts 327°
2026-05-07 19:22 45.85416 14.50096 34033 ft 433 kts 326°
2026-05-07 19:23 45.90770 14.46223 34032 ft 434 kts 327°
2026-05-07 19:23 45.96165 14.42333 34031 ft 433 kts 326°
2026-05-07 19:24 46.01532 14.38403 34050 ft 432 kts 326°
2026-05-07 19:24 46.06908 14.34528 34049 ft 431 kts 326°
2026-05-07 19:25 46.12262 14.30609 34026 ft 432 kts 326°
2026-05-07 19:25 46.17734 14.26955 34026 ft 433 kts 328°
2026-05-07 19:26 46.23167 14.23358 34026 ft 432 kts 328°
2026-05-07 19:26 46.28649 14.19774 34032 ft 431 kts 328°
2026-05-07 19:27 46.33223 14.16748 34044 ft 432 kts 328°
2026-05-07 19:27 46.38657 14.13144 34048 ft 431 kts 328°
2026-05-07 19:28 46.44134 14.09525 34055 ft 431 kts 328°
2026-05-07 19:28 46.49563 14.05920 34044 ft 431 kts 328°
2026-05-07 19:29 46.55034 14.02287 34057 ft 433 kts 329°
2026-05-07 19:29 46.60535 13.98644 34050 ft 433 kts 329°
2026-05-07 19:30 46.66012 13.94938 34048 ft 434 kts 329°
2026-05-07 19:30 46.71471 13.91315 34053 ft 432 kts 329°
2026-05-07 19:31 46.76933 13.87638 34066 ft 433 kts 329°
2026-05-07 19:31 46.82431 13.83960 34056 ft 434 kts 329°
2026-05-07 19:32 46.87906 13.80235 34052 ft 434 kts 329°
2026-05-07 19:32 46.93360 13.76552 34056 ft 434 kts 329°
2026-05-07 19:33 46.98856 13.72862 34090 ft 435 kts 329°
2026-05-07 19:33 47.04353 13.69101 34071 ft 436 kts 330°
2026-05-07 19:34 47.09861 13.65379 34066 ft 434 kts 330°
2026-05-07 19:34 47.15300 13.61661 34067 ft 434 kts 329°
2026-05-07 19:35 47.20782 13.57926 34104 ft 433 kts 330°
2026-05-07 19:35 47.23512 13.56056 33967 ft 429 kts 330°
2026-05-07 19:35 47.26219 13.54182 33611 ft 432 kts 330°
2026-05-07 19:36 47.28944 13.52299 33329 ft 433 kts 330°
2026-05-07 19:36 47.31689 13.50423 33058 ft 434 kts 330°
2026-05-07 19:36 47.34425 13.48557 32790 ft 434 kts 330°
2026-05-07 19:36 47.37136 13.46689 32530 ft 434 kts 330°
2026-05-07 19:37 47.39870 13.44789 32267 ft 434 kts 330°
2026-05-07 19:37 47.42606 13.42890 32006 ft 434 kts 330°
2026-05-07 19:37 47.45350 13.41010 31397 ft 433 kts 331°
2026-05-07 19:37 47.48069 13.39107 30638 ft 431 kts 329°
2026-05-07 19:38 47.50602 13.36790 29861 ft 426 kts 320°
2026-05-07 19:38 47.52924 13.34071 29056 ft 423 kts 317°
2026-05-07 19:38 47.55158 13.31350 28349 ft 420 kts 317°
2026-05-07 19:38 47.57399 13.28614 27736 ft 416 kts 317°
2026-05-07 19:39 47.59620 13.25883 27091 ft 412 kts 317°
2026-05-07 19:39 47.61831 13.23200 26432 ft 409 kts 318°
2026-05-07 19:39 47.64028 13.20546 25797 ft 406 kts 318°
2026-05-07 19:39 47.66209 13.17883 25179 ft 403 kts 318°
2026-05-07 19:40 47.68367 13.15244 24558 ft 402 kts 319°
2026-05-07 19:40 47.70520 13.12615 23919 ft 400 kts 319°
2026-05-07 19:40 47.72666 13.09990 23233 ft 398 kts 319°
2026-05-07 19:40 47.74795 13.07374 22574 ft 394 kts 319°
2026-05-07 19:41 47.76902 13.04804 21932 ft 391 kts 319°
2026-05-07 19:41 47.78999 13.02244 21302 ft 387 kts 319°
2026-05-07 19:41 47.81047 12.99738 20702 ft 383 kts 319°
2026-05-07 19:41 47.83099 12.97224 20097 ft 380 kts 319°
2026-05-07 19:42 47.85128 12.94732 19541 ft 376 kts 318°
2026-05-07 19:42 47.87133 12.92246 19007 ft 373 kts 318°
2026-05-07 19:42 47.89126 12.89785 18494 ft 371 kts 319°
2026-05-07 19:42 47.91120 12.87337 17941 ft 370 kts 318°
2026-05-07 19:43 47.93092 12.84905 17415 ft 368 kts 318°
2026-05-07 19:43 47.95036 12.82418 16870 ft 365 kts 313°
2026-05-07 19:43 47.96586 12.79451 16346 ft 361 kts 300°
2026-05-07 19:43 47.97855 12.76284 15865 ft 359 kts 298°
2026-05-07 19:44 47.99110 12.73079 15394 ft 357 kts 298°
2026-05-07 19:44 48.00367 12.69901 14926 ft 355 kts 298°
2026-05-07 19:44 48.01625 12.66721 14438 ft 354 kts 298°
2026-05-07 19:44 48.02888 12.63557 13957 ft 354 kts 298°
2026-05-07 19:45 48.04151 12.60404 13449 ft 353 kts 298°
2026-05-07 19:45 48.05399 12.57254 12935 ft 351 kts 298°
2026-05-07 19:45 48.06642 12.54106 12441 ft 350 kts 298°
2026-05-07 19:45 48.07865 12.51033 11945 ft 345 kts 298°
2026-05-07 19:46 48.09067 12.47975 11463 ft 337 kts 298°
2026-05-07 19:46 48.10252 12.44999 11088 ft 327 kts 298°
2026-05-07 19:46 48.11388 12.42125 10885 ft 313 kts 298°
2026-05-07 19:46 48.12477 12.39389 10712 ft 299 kts 298°
2026-05-07 19:47 48.13506 12.36776 10544 ft 285 kts 297°
2026-05-07 19:47 48.14267 12.34115 10292 ft 272 kts 280°
2026-05-07 19:47 48.14294 12.31359 10091 ft 268 kts 263°
2026-05-07 19:47 48.14056 12.28553 10059 ft 269 kts 263°
2026-05-07 19:48 48.13817 12.25780 10063 ft 268 kts 263°
2026-05-07 19:48 48.13592 12.23045 10071 ft 268 kts 263°
2026-05-07 19:48 48.13445 12.20263 10054 ft 269 kts 274°
2026-05-07 19:48 48.13967 12.17593 10018 ft 271 kts 297°
2026-05-07 19:49 48.15218 12.15470 9766 ft 276 kts 321°
2026-05-07 19:49 48.16986 12.14319 9491 ft 283 kts 346°
2026-05-07 19:49 48.18963 12.14375 9198 ft 289 kts 11°
2026-05-07 19:49 48.20791 12.15658 8904 ft 294 kts 35°
2026-05-07 19:50 48.22190 12.17902 8606 ft 296 kts 53°
2026-05-07 19:50 48.23016 12.20712 8294 ft 296 kts 77°
2026-05-07 19:50 48.23327 12.23754 8007 ft 294 kts 83°
2026-05-07 19:50 48.23539 12.26797 7712 ft 292 kts 84°
2026-05-07 19:51 48.23737 12.29824 7435 ft 290 kts 84°
2026-05-07 19:51 48.23932 12.32834 7161 ft 289 kts 84°
2026-05-07 19:51 48.24124 12.35822 6873 ft 286 kts 84°
2026-05-07 19:51 48.24459 12.38747 6588 ft 284 kts 69°
2026-05-07 19:52 48.25464 12.41203 6306 ft 280 kts 46°
2026-05-07 19:52 48.26867 12.43209 6038 ft 278 kts 40°
2026-05-07 19:52 48.28326 12.45115 5978 ft 277 kts 39°
2026-05-07 19:52 48.29840 12.46889 5999 ft 276 kts 27°
2026-05-07 19:53 48.31648 12.47707 6013 ft 272 kts
2026-05-07 19:53 48.33496 12.47290 6019 ft 268 kts 336°
2026-05-07 19:53 48.35025 12.45755 5892 ft 265 kts 311°
2026-05-07 19:53 48.36030 12.43462 5702 ft 263 kts 296°
2026-05-07 19:54 48.36838 12.40994 5409 ft 262 kts 295°
2026-05-07 19:54 48.37615 12.38521 5070 ft 261 kts 294°
2026-05-07 19:54 48.38311 12.35989 4698 ft 261 kts 284°
2026-05-07 19:54 48.38554 12.33302 4345 ft 259 kts 271°
2026-05-07 19:55 48.38450 12.30635 4045 ft 259 kts 259°
2026-05-07 19:55 48.38137 12.27928 3985 ft 260 kts 264°
2026-05-07 19:55 48.37925 12.25267 3999 ft 260 kts 263°
2026-05-07 19:55 48.37716 12.22568 4018 ft 260 kts 263°
2026-05-07 19:56 48.37511 12.19896 4024 ft 256 kts 263°
2026-05-07 19:56 48.37305 12.17221 4026 ft 257 kts 263°
2026-05-07 19:56 48.37100 12.14549 4021 ft 257 kts 263°
2026-05-07 19:56 48.36900 12.11943 4024 ft 242 kts 263°
2026-05-07 19:57 48.36714 12.09511 4014 ft 230 kts 263°
2026-05-07 19:57 48.36524 12.07041 4030 ft 240 kts 263°
2026-05-07 19:57 48.36333 12.04558 4030 ft 234 kts 263°
2026-05-07 19:57 48.36154 12.02220 4015 ft 215 kts 263°
2026-05-07 19:58 48.35991 12.00093 3991 ft 195 kts 264°
2026-05-07 19:58 48.35838 11.98096 3891 ft 192 kts 264°
2026-05-07 19:58 48.35687 11.96130 3658 ft 192 kts 264°
2026-05-07 19:58 48.35533 11.94128 3384 ft 192 kts 264°
2026-05-07 19:59 48.35386 11.92205 3139 ft 175 kts 264°
2026-05-07 19:59 48.35255 11.90484 2880 ft 157 kts 264°
2026-05-07 19:59 48.35138 11.88949 2641 ft 142 kts 265°
2026-05-07 19:59 48.35026 11.87480 2445 ft 141 kts 265°
2026-05-07 20:00 48.34914 11.86015 2249 ft 141 kts 265°
2026-05-07 20:00 48.34801 11.84548 2057 ft 141 kts 264°
2026-05-07 20:00 48.34689 11.83090 1886 ft 140 kts 264°
2026-05-07 20:00 48.34568 11.81636 1694 ft 140 kts 263°
2026-05-07 20:01 48.34460 11.80190 1508 ft 138 kts 264°
2026-05-07 20:01 48.34368 11.78993 1491 ft 72 kts 263°
2026-05-07 20:01 48.34369 11.78625 1487 ft 24 kts 290°
2026-05-07 20:01 48.34436 11.78394 1487 ft 24 kts 293°
2026-05-07 20:02 48.34472 11.78268 1482 ft 11 kts 292°
2026-05-07 20:02 48.34503 11.78156 1485 ft 13 kts 293°
2026-05-07 20:02 48.34541 11.78027 1480 ft 14 kts 293°
2026-05-07 20:02 48.34608 11.77913 1484 ft 16 kts 349°
2026-05-07 20:03 48.34725 11.77891 1485 ft 17 kts 353°